[[{"header":{"parameterUnit":"m.s-1","parameterCategory":2,"la1":30.2991,"la2":30.254,"lo1":-89.0895,"lo2":-89.0444,"dy":0.0017,"dx":0.0017,"nx":28,"ny":28,"refTime":"2024-08-30T09:00:00:Z","depth":"0","parameterNumber":2,"parameterNumberName":"U-component_of_CURRENTS"},"data":[0,0,0,0,0,0,0,0,0,0,0,0,0,0,0,0,0,0,0,0,0,0,0,0,0,0,0,0,0,0,0,0,0,0,0,0,0,0,0,0,0,0,0,0,0,0,0,0,0,0,0,0,0,0,0,0,0,0,0.2748,0.2748,0,0.2777,0.2778,0.2778,0.2771,0.2771,0.2771,0.2771,0.2757,0.2757,0.2757,0,0,0,0,0,0,0,0,0,0,0,0,0,0.2688,0.2689,0.2748,0.2749,0.2749,0.2777,0.2778,0.2778,0.2772,0.2771,0.2771,0.2771,0.2758,0.2757,0.2757,0,0,0,0,0,0,0,0,0,0,0,0,0,0.2712,0.2689,0.2748,0.2752,0.2753,0.2777,0.2778,0.2778,0.2772,0.2771,0.2771,0.277,0.2758,0.2757,0.2757,0.2765,0,0,0.2757,0.2757,0,0,0,0,0,0,0,0,0.2711,0.2714,0.275,0.2751,0.2753,0.2773,0.2752,0.2772,0.2772,0.2761,0.2771,0.277,0.2761,0.276,0.2763,0.2764,0.2764,0.2757,0.2757,0.2757,0.2757,0,0,0,0,0,0,0,0.2709,0.2713,0.2757,0.2751,0.2753,0.2753,0.2755,0.2756,0.276,0.2762,0.2762,0.2771,0.2761,0.2764,0.2763,0.2763,0.2757,0.2757,0.2757,0.2757,0.2812,0.2813,0,0,0,0,0,0,0.2712,0.2712,0.2756,0.2758,0.2734,0.2754,0.2757,0.2764,0.2761,0.2761,0.2771,0.277,0.2764,0.2763,0.2762,0.2811,0.2757,0.2757,0.2756,0.281,0.2812,0.2814,0,0,0,0,0,0,0.2711,0.2716,0.2755,0.2738,0.2743,0.2756,0.2764,0.2765,0.2775,0.2769,0.2767,0.2781,0.2764,0.2763,0.2776,0.2809,0.2757,0.2756,0.2809,0.2811,0.2813,0.2882,0,0,0,0,0,0,0.2709,0.2715,0.2721,0.2738,0.2744,0.278,0.2765,0.2766,0.2782,0.2781,0.2776,0.2774,0.2763,0.2777,0.2776,0.2807,0.2756,0.2807,0.281,0.2812,0.2878,0.2886,0.2894,0,0,0,0,0,0.2706,0.2716,0.2721,0.2726,0.2752,0.2781,0.2784,0.279,0.2783,0.2795,0.2793,0.2775,0.2795,0.2778,0.2777,0.2809,0.2805,0.2809,0.2812,0.2874,0.2885,0.2893,0,0,0,0,0,0,0.2687,0.2717,0.2723,0.2739,0.2764,0.2781,0.2793,0.2797,0.2805,0.2803,0.279,0.2789,0.2814,0.2803,0.2784,0.2835,0.2799,0.2803,0.2847,0.2856,0.2864,0.2867,0.2756,0,0,0,0,0,0.2688,0.2706,0.2734,0.2748,0.2764,0.278,0.2792,0.28,0.2811,0.2814,0.2812,0.2814,0.2828,0.2834,0.2838,0.2862,0.287,0.2884,0.2892,0.2899,0.2902,0.2947,0.2959,0.2825,0.2825,0.2825,0,0,0.2681,0.2703,0.2711,0.2746,0.2764,0.2795,0.2786,0.2812,0.2835,0.2811,0.2836,0.2839,0.284,0.2871,0.2882,0.2865,0.2945,0.2904,0.2909,0.2908,0.2952,0.2965,0.2976,0.2828,0.2827,0.2827,0,0,0.2687,0.2703,0.2725,0.2751,0.279,0.2806,0.2818,0.2844,0.2854,0.2881,0.2876,0.2899,0.291,0.2926,0.2934,0.2988,0.2984,0.2993,0.3038,0.3082,0.3093,0.3103,0.3145,0.3158,0.2999,0.3,0.3,0,0.2677,0.2708,0.2735,0.2769,0.2787,0.2815,0.2841,0.2867,0.2892,0.2908,0.2897,0.2939,0.2939,0.2988,0.3012,0.3006,0.303,0.3001,0.3093,0.3103,0.3112,0.3152,0.3165,0.3003,0.3003,0.3002,0.3002,0,0.2705,0.273,0.2747,0.2799,0.2827,0.2852,0.2895,0.2927,0.2941,0.2961,0.3007,0.3014,0.304,0.3053,0.305,0.312,0.3118,0.3097,0.3068,0.3129,0.3168,0.3181,0.3009,0.3007,0.3006,0.3005,0,0,0.2668,0.2749,0.2752,0.2781,0.2839,0.2866,0.2919,0.2971,0.3012,0.304,0.3086,0.312,0.3127,0.3137,0.3143,0.3185,0.3276,0.3176,0.3176,0.3217,0.3384,0.3367,0.3379,0.3277,0.3279,0.3281,0.339,0,0.2674,0.2733,0.2771,0.2824,0.2856,0.2903,0.2953,0.3007,0.3049,0.3107,0.3135,0.3179,0.316,0.3184,0.3225,0.3264,0.3311,0.3248,0.3318,0.332,0.3297,0.3393,0.3324,0.3415,0.3403,0.3405,0.3406,0,0.2679,0.2721,0.2766,0.2843,0.2861,0.2902,0.2984,0.3034,0.3127,0.3159,0.3212,0.3237,0.331,0.3279,0.3379,0.3344,0.3372,0.3395,0.3399,0.3365,0.3327,0.3349,0.3438,0.3381,0.3426,0.3424,0.3423,0,0.2633,0.2712,0.2744,0.2768,0.2863,0.2899,0.2957,0.3049,0.3085,0.3201,0.3237,0.3321,0.3368,0.3419,0.3467,0.3437,0.3575,0.3532,0.3541,0.354,0.3484,0.3474,0.3522,0.3603,0.3602,0.3602,0.3602,0,0.2612,0.2639,0.2732,0.2751,0.2795,0.2884,0.2937,0.3015,0.3113,0.3166,0.3258,0.3314,0.3408,0.3486,0.3513,0.3582,0.3613,0.3575,0.3578,0.3507,0.3498,0.3444,0.341,0.3606,0.3605,0.3604,0.3604,0,0.2547,0.2606,0.2647,0.2746,0.277,0.2807,0.2895,0.2946,0.3059,0.3136,0.3174,0.3329,0.3454,0.3533,0.3644,0.3643,0.3621,0.3712,0.3626,0.3617,0.3546,0.3517,0.341,0.3297,0.3744,0.3745,0.3745,0,0.2515,0.2533,0.2611,0.2626,0.2666,0.2726,0.2766,0.2891,0.2954,0.3133,0.3177,0.3338,0.3441,0.3615,0.3679,0.3759,0.3633,0.3715,0.3633,0.356,0.3532,0.3357,0.3255,0.3595,0.3594,0.3594,0.3593,0,0.245,0.2477,0.2508,0.2541,0.258,0.2609,0.2697,0.2726,0.2893,0.2983,0.3138,0.3242,0.346,0.355,0.3677,0.3703,0.356,0.3699,0.3652,0.3452,0.3239,0.3124,0.3503,0.3586,0.3587,0.3587,0.3588,0.3588,0.2382,0.2382,0.2425,0.244,0.2475,0.2497,0.2492,0.2606,0.2685,0.2813,0.3008,0.3146,0.3394,0.3581,0.3579,0.3593,0.351,0.3527,0.3513,0.3352,0.3191,0.3558,0.3619,0.362,0.3621,0.3621,0.3622,0,0.2294,0.2306,0.2324,0.2335,0.2324,0.2384,0.2439,0.2432,0.2486,0.2691,0.2815,0.3087,0.3233,0.3398,0.3564,0.3464,0.3248,0.3365,0.312,0.3036,0.3417,0.3361,0.3336,0.3336,0.3336,0.3336,0.3336,0.3336,0.2247,0.2228,0.2238,0.218,0.2184,0.2143,0.2146,0.2167,0.229,0.2444,0.2622,0.2796,0.3209,0.3484,0.3503,0.34,0.3103,0.297,0.2898,0.3221,0.3234,0.3246,0.3185,0.3124,0.3123,0.2392,0.2387,0.2383]},{"header":{"parameterUnit":"m.s-1","parameterCategory":2,"la1":30.2991,"la2":30.254,"lo1":-89.0895,"lo2":-89.0444,"dy":0.0017,"dx":0.0017,"nx":28,"ny":28,"refTime":"2024-08-30T09:00:00:Z","depth":"0","parameterNumber":3,"parameterNumberName":"V-component_of_CURRENTS"},"data":[0,0,0,0,0,0,0,0,0,0,0,0,0,0,0,0,0,0,0,0,0,0,0,0,0,0,0,0,0,0,0,0,0,0,0,0,0,0,0,0,0,0,0,0,0,0,0,0,0,0,0,0,0,0,0,0,0,0,-0.006,-0.0061,0,-0.0141,-0.0143,-0.0144,-0.0192,-0.0192,-0.0192,-0.0192,-0.0299,-0.0301,-0.0304,0,0,0,0,0,0,0,0,0,0,0,0,0,0.0002,0.0002,-0.006,-0.0061,-0.0062,-0.0141,-0.0143,-0.0144,-0.0192,-0.0192,-0.0192,-0.0192,-0.0298,-0.0301,-0.0304,0,0,0,0,0,0,0,0,0,0,0,0,0,-0.0048,0.0001,-0.006,-0.0094,-0.0097,-0.0141,-0.0143,-0.0144,-0.0192,-0.0192,-0.0192,-0.0192,-0.0297,-0.0301,-0.0305,-0.0331,0,0,-0.0318,-0.032,0,0,0,0,0,0,0,0,-0.0045,-0.0051,-0.0088,-0.0091,-0.0096,-0.0155,-0.016,-0.0207,-0.0192,-0.0158,-0.0192,-0.0192,-0.0251,-0.0259,-0.0277,-0.0336,-0.034,-0.0318,-0.0321,-0.0323,-0.0324,0,0,0,0,0,0,0,-0.0042,-0.0048,-0.0095,-0.0089,-0.0093,-0.0122,-0.0129,-0.0169,-0.0206,-0.0161,-0.0164,-0.017,-0.0254,-0.0273,-0.028,-0.0342,-0.0318,-0.0322,-0.0325,-0.0326,-0.0415,-0.0415,0,0,0,0,0,0,-0.0025,-0.0044,-0.0092,-0.0097,-0.0067,-0.0123,-0.0131,-0.0137,-0.0205,-0.0215,-0.017,-0.0172,-0.0266,-0.0275,-0.0284,-0.0307,-0.0323,-0.0327,-0.0329,-0.0416,-0.0415,-0.0415,0,0,0,0,0,0,-0.0023,-0.0028,-0.0089,-0.0071,-0.008,-0.0123,-0.0131,-0.0139,-0.0153,-0.0211,-0.0221,-0.0174,-0.0266,-0.0278,-0.0318,-0.0312,-0.0329,-0.0332,-0.0416,-0.0416,-0.0415,-0.0361,0,0,0,0,0,0,-0.0021,-0.0027,-0.0026,-0.0069,-0.008,-0.0104,-0.0131,-0.014,-0.0156,-0.0159,-0.0219,-0.0229,-0.0267,-0.0312,-0.0323,-0.0318,-0.0336,-0.0416,-0.0416,-0.0415,-0.0363,-0.0359,-0.0356,0,0,0,0,0,-0.0018,-0.0012,-0.0025,-0.0031,-0.0077,-0.0104,-0.0112,-0.0145,-0.0156,-0.0158,-0.0203,-0.0227,-0.0317,-0.0315,-0.0328,-0.0325,-0.0416,-0.0416,-0.0415,-0.0365,-0.036,-0.0356,0,0,0,0,0,0,0.0019,-0.0018,-0.0033,-0.0037,-0.0064,-0.0111,-0.0115,-0.0137,-0.0175,-0.0178,-0.0232,-0.0246,-0.0276,-0.0308,-0.0305,-0.0349,-0.0367,-0.0369,-0.0325,-0.0321,-0.0317,-0.0282,-0.0339,0,0,0,0,0,0.0028,0.0022,-0.0017,-0.0018,-0.003,-0.0071,-0.0085,-0.0107,-0.0145,-0.0161,-0.0203,-0.0247,-0.0286,-0.0308,-0.0346,-0.0375,-0.0393,-0.0379,-0.0375,-0.0372,-0.0352,-0.0387,-0.0385,-0.0414,-0.0414,-0.0414,0,0,0.0042,0.0023,0.0019,-0.0011,-0.0035,-0.0043,-0.008,-0.0095,-0.0101,-0.0167,-0.019,-0.0236,-0.029,-0.0321,-0.0337,-0.0347,-0.0372,-0.0371,-0.0368,-0.035,-0.0387,-0.0384,-0.0381,-0.0414,-0.0414,-0.0414,0,0,0.0074,0.0051,0.0058,0.0039,0.0011,-0.0016,-0.0015,-0.0059,-0.0078,-0.0109,-0.0156,-0.0197,-0.0255,-0.0295,-0.0322,-0.032,-0.0349,-0.033,-0.0287,-0.0322,-0.032,-0.0318,-0.0328,-0.0328,-0.033,-0.033,-0.033,0,0.0095,0.0096,0.0057,0.006,0.0054,0.0002,0.0013,-0.0018,-0.0069,-0.0078,-0.0104,-0.0186,-0.0241,-0.0275,-0.0278,-0.0311,-0.0324,-0.0301,-0.0316,-0.0315,-0.0314,-0.0325,-0.0325,-0.0327,-0.0327,-0.0328,-0.0328,0,0.013,0.013,0.0135,0.012,0.0109,0.0108,0.0067,0.0051,0.0021,-0.0011,-0.0048,-0.0127,-0.0169,-0.0201,-0.0243,-0.0262,-0.027,-0.0306,-0.0324,-0.0307,-0.0321,-0.0322,-0.0323,-0.0324,-0.0325,-0.0326,0,0,0.018,0.0163,0.0165,0.0176,0.0143,0.0142,0.0131,0.0111,0.012,0.0053,0.0058,-0.0034,-0.0072,-0.0104,-0.0166,-0.0206,-0.0225,-0.0246,-0.0249,-0.0248,-0.0278,-0.0292,-0.0295,-0.0263,-0.0263,-0.0263,-0.0287,0,0.0222,0.0247,0.0224,0.0253,0.0264,0.0223,0.0228,0.0202,0.0168,0.0155,0.007,0.0044,-0.0037,-0.0055,-0.0108,-0.0191,-0.0225,-0.0213,-0.0301,-0.0302,-0.0311,-0.0296,-0.0278,-0.0298,-0.0289,-0.0289,-0.0289,0,0.0266,0.0278,0.0315,0.0332,0.0335,0.0344,0.0352,0.0346,0.0305,0.028,0.0229,0.017,0.0102,0.0031,-0.0092,-0.0077,-0.0164,-0.0235,-0.0238,-0.0266,-0.0318,-0.0317,-0.0301,-0.0477,-0.0291,-0.0291,-0.0291,0,0.0328,0.0345,0.0382,0.0384,0.039,0.0408,0.0408,0.0386,0.0404,0.0357,0.0368,0.0272,0.0241,0.0114,-0.0035,-0.006,-0.016,-0.0219,-0.0309,-0.0311,-0.0318,-0.032,-0.0475,-0.0298,-0.0298,-0.0298,-0.0298,0,0.0381,0.0413,0.0417,0.0438,0.0497,0.0475,0.0525,0.0511,0.0514,0.0553,0.044,0.0457,0.0262,0.0177,0.0019,-0.0132,-0.012,-0.0285,-0.0318,-0.0299,-0.0299,-0.0471,-0.0587,-0.0299,-0.0298,-0.0298,-0.0298,0,0.0442,0.0441,0.0491,0.0514,0.0528,0.0568,0.0607,0.0647,0.0632,0.0681,0.0678,0.0608,0.0497,0.0305,0.0113,-0.0043,-0.0307,-0.0264,-0.0215,-0.0242,-0.0504,-0.0615,-0.0802,-0.0877,-0.0366,-0.0366,-0.0366,0,0.0475,0.0506,0.0553,0.0591,0.0604,0.0652,0.0696,0.0702,0.0753,0.0783,0.0828,0.075,0.0714,0.0433,0.0146,-0.0115,-0.0307,-0.0281,-0.0343,-0.0502,-0.0652,-0.0739,-0.0795,-0.0328,-0.0328,-0.0328,-0.0328,0,0.054,0.0557,0.0596,0.0674,0.0728,0.0792,0.0855,0.092,0.0947,0.1001,0.1069,0.1051,0.0791,0.0548,0.0181,-0.0023,-0.0413,-0.029,-0.0477,-0.0646,-0.073,-0.0821,-0.0316,-0.0328,-0.0328,-0.0328,-0.0328,-0.0328,0.0593,0.0633,0.0686,0.0762,0.0831,0.0929,0.0994,0.1081,0.1188,0.1286,0.126,0.1277,0.0915,0.0422,0.0119,-0.0407,-0.0434,-0.0571,-0.0692,-0.0763,-0.0848,-0.033,-0.0374,-0.0375,-0.0375,-0.0375,-0.0375,0,0.0654,0.0696,0.0769,0.0858,0.0944,0.097,0.1102,0.1182,0.1322,0.1433,0.1487,0.1362,0.0881,0.0391,-0.0313,-0.0715,-0.0876,-0.0948,-0.1076,-0.1113,-0.0662,-0.0673,-0.0757,-0.0757,-0.0757,-0.0757,-0.0757,-0.0757,0.0688,0.0763,0.0795,0.0936,0.1004,0.1126,0.1207,0.1343,0.1458,0.1606,0.1664,0.1672,0.1356,0.0017,-0.0906,-0.1139,-0.141,-0.1489,-0.1633,-0.1341,-0.1315,-0.129,-0.1327,-0.1547,-0.1549,-0.2011,-0.2016,-0.2019]}],[{"header":{"parameterUnit":"m.s-1","parameterCategory":2,"la1":30.2991,"la2":30.254,"lo1":-89.0895,"lo2":-89.0444,"dy":0.0017,"dx":0.0017,"nx":28,"ny":28,"refTime":"2024-08-30T09:00:00:Z","depth":"2","parameterNumber":2,"parameterNumberName":"U-component_of_CURRENTS"},"data":[0,0,0,0,0,0,0,0,0,0,0,0,0,0,0,0,0,0,0,0,0,0,0,0,0,0,0,0,0,0,0,0,0,0,0,0,0,0,0,0,0,0,0,0,0,0,0,0,0,0,0,0,0,0,0,0,0,0,0.2553,0.2554,0,0.2581,0.2581,0.2582,0.2598,0.2598,0.2599,0.2599,0.2624,0.2624,0.2625,0,0,0,0,0,0,0,0,0,0,0,0,0,0.2491,0.2492,0.2553,0.2554,0.2554,0.2581,0.2581,0.2582,0.2598,0.2598,0.2599,0.2599,0.2624,0.2624,0.2625,0,0,0,0,0,0,0,0,0,0,0,0,0,0.2518,0.2492,0.2553,0.2566,0.2568,0.2581,0.2581,0.2582,0.2598,0.2598,0.2599,0.2599,0.2623,0.2624,0.2625,0.2626,0,0,0.2627,0.2628,0,0,0,0,0,0,0,0,0.2516,0.252,0.2564,0.2565,0.2567,0.2587,0.2569,0.2597,0.2598,0.2586,0.2599,0.2599,0.2612,0.2613,0.2617,0.2627,0.2628,0.2628,0.2628,0.2628,0.2629,0,0,0,0,0,0,0,0.2514,0.2519,0.2564,0.2564,0.2566,0.2562,0.2567,0.2574,0.2597,0.2587,0.2589,0.2593,0.2612,0.2616,0.2618,0.2628,0.2628,0.2628,0.2629,0.2629,0.2709,0.271,0,0,0,0,0,0,0.2513,0.2517,0.2563,0.2565,0.2542,0.2563,0.2568,0.258,0.2597,0.26,0.2592,0.2593,0.2615,0.2617,0.2619,0.2698,0.2628,0.2629,0.263,0.2707,0.2709,0.2711,0,0,0,0,0,0,0.2512,0.2518,0.2562,0.2541,0.2547,0.2565,0.2577,0.258,0.2601,0.2601,0.2604,0.2612,0.2615,0.2618,0.2649,0.2696,0.263,0.263,0.2705,0.2708,0.271,0.2807,0,0,0,0,0,0,0.251,0.2517,0.2529,0.2542,0.2548,0.2587,0.2577,0.2581,0.2603,0.2604,0.2619,0.262,0.2616,0.2648,0.265,0.2696,0.2631,0.2703,0.2706,0.2709,0.2802,0.2813,0.2822,0,0,0,0,0,0.2508,0.2521,0.253,0.2535,0.2563,0.2588,0.2592,0.2604,0.2604,0.2621,0.2633,0.2621,0.2669,0.265,0.2652,0.27,0.2702,0.2705,0.2709,0.2798,0.2811,0.2822,0,0,0,0,0,0,0.25,0.2524,0.2534,0.2555,0.2579,0.2592,0.2607,0.2614,0.2637,0.2641,0.2639,0.2642,0.2685,0.2676,0.2655,0.273,0.2684,0.2688,0.2751,0.2763,0.2773,0.2752,0.2632,0,0,0,0,0,0.2504,0.2522,0.2547,0.2566,0.258,0.2597,0.2609,0.2622,0.2639,0.265,0.2662,0.2676,0.2698,0.2718,0.2725,0.2768,0.2756,0.28,0.281,0.2819,0.2803,0.2838,0.2849,0.2723,0.2723,0.2723,0,0,0.2503,0.2522,0.2531,0.2566,0.2584,0.2614,0.2606,0.2634,0.2661,0.2649,0.2692,0.2706,0.2714,0.2763,0.2783,0.2766,0.2852,0.2823,0.2831,0.281,0.2843,0.2855,0.2866,0.2725,0.2725,0.2724,0,0,0.2511,0.2534,0.2552,0.258,0.2616,0.2632,0.2646,0.2676,0.2693,0.2734,0.2737,0.2774,0.2807,0.2828,0.284,0.2906,0.2896,0.2925,0.2972,0.3007,0.3018,0.3027,0.3045,0.3054,0.2941,0.2941,0.2941,0,0.2507,0.254,0.2562,0.2594,0.2615,0.2645,0.2673,0.2701,0.2739,0.2758,0.2758,0.282,0.2832,0.2892,0.2926,0.2929,0.2944,0.293,0.3021,0.3029,0.3037,0.3053,0.3062,0.2946,0.2945,0.2945,0.2944,0,0.2533,0.2564,0.258,0.2631,0.266,0.2691,0.2731,0.2768,0.2794,0.2819,0.2878,0.29,0.2937,0.2964,0.2969,0.3043,0.3035,0.3024,0.2991,0.3056,0.3068,0.3076,0.2953,0.2951,0.295,0.2949,0,0,0.2504,0.258,0.2587,0.2615,0.2681,0.2704,0.2762,0.2813,0.2857,0.29,0.2951,0.3003,0.3021,0.3034,0.3058,0.3099,0.3181,0.3099,0.3099,0.3117,0.3264,0.3251,0.3258,0.3203,0.3205,0.3206,0.3257,0,0.2515,0.2576,0.2609,0.2665,0.2701,0.2746,0.2798,0.2853,0.2903,0.2967,0.3001,0.3058,0.305,0.3091,0.313,0.3171,0.3205,0.3167,0.3196,0.3195,0.3177,0.3267,0.3043,0.3069,0.3265,0.3266,0.3267,0,0.2521,0.257,0.2621,0.2691,0.2709,0.2747,0.2831,0.2882,0.2976,0.3019,0.308,0.3112,0.3187,0.3166,0.3246,0.3234,0.3249,0.3266,0.3269,0.3219,0.3198,0.3032,0.3076,0.328,0.3279,0.3278,0.3277,0,0.2487,0.2565,0.2603,0.263,0.2723,0.2751,0.2805,0.2899,0.2942,0.3061,0.3107,0.3189,0.3239,0.3277,0.3318,0.33,0.3396,0.3368,0.3356,0.3354,0.3144,0.3122,0.3401,0.3401,0.3401,0.3401,0.3401,0,0.2473,0.2504,0.2595,0.2619,0.2666,0.2744,0.28,0.2872,0.2978,0.3036,0.3131,0.3185,0.3273,0.3335,0.3352,0.3394,0.3421,0.3372,0.3376,0.3174,0.3155,0.3309,0.3298,0.3403,0.3402,0.3402,0.3402,0,0.2414,0.2475,0.2517,0.2617,0.2643,0.2678,0.277,0.282,0.2942,0.3024,0.3064,0.3202,0.3303,0.337,0.3451,0.3437,0.3475,0.3469,0.3227,0.3202,0.3394,0.3387,0.3463,0.3463,0.3463,0.3463,0.3463,0,0.2388,0.2405,0.2489,0.2506,0.2543,0.2609,0.2652,0.278,0.2838,0.3015,0.3047,0.3193,0.3272,0.3402,0.3434,0.3481,0.3495,0.3269,0.3184,0.3409,0.3405,0.3398,0.3391,0.2941,0.2937,0.2934,0.2931,0,0.2326,0.2347,0.2382,0.2434,0.2469,0.2504,0.2587,0.2617,0.2775,0.2862,0.2984,0.3071,0.3238,0.3215,0.3309,0.329,0.3253,0.3203,0.3504,0.2977,0.2926,0.292,0.2928,0.29,0.2904,0.2906,0.2907,0.2909,0.2262,0.2264,0.2311,0.2337,0.2376,0.2395,0.2391,0.2487,0.2556,0.266,0.2823,0.2891,0.2992,0.3037,0.2979,0.2952,0.3161,0.3011,0.3016,0.3027,0.2975,0.2929,0.2892,0.2895,0.2897,0.29,0.2902,0,0.2178,0.2197,0.2217,0.2238,0.2229,0.2297,0.2338,0.2319,0.2349,0.2499,0.2593,0.2481,0.2519,0.2603,0.2545,0.2586,0.2509,0.2462,0.233,0.2366,0.2398,0.2306,0.2049,0.2046,0.2042,0.2039,0,0,0.2137,0.2122,0.2129,0.2083,0.2101,0.2067,0.2063,0.2057,0.2134,0.2138,0.2181,0.2405,0.2562,0.2257,0.2258,0.2139,0.2216,0.2062,0.2764,0.2648,0.2673,0.2757,0.2667,0,0,0,0,0]},{"header":{"parameterUnit":"m.s-1","parameterCategory":2,"la1":30.2991,"la2":30.254,"lo1":-89.0895,"lo2":-89.0444,"dy":0.0017,"dx":0.0017,"nx":28,"ny":28,"refTime":"2024-08-30T09:00:00:Z","depth":"2","parameterNumber":3,"parameterNumberName":"V-component_of_CURRENTS"},"data":[0,0,0,0,0,0,0,0,0,0,0,0,0,0,0,0,0,0,0,0,0,0,0,0,0,0,0,0,0,0,0,0,0,0,0,0,0,0,0,0,0,0,0,0,0,0,0,0,0,0,0,0,0,0,0,0,0,0,-0.0102,-0.0103,0,-0.0173,-0.0174,-0.0174,-0.022,-0.022,-0.022,-0.022,-0.0323,-0.0325,-0.0328,0,0,0,0,0,0,0,0,0,0,0,0,0,-0.0047,-0.0048,-0.0102,-0.0103,-0.0104,-0.0172,-0.0174,-0.0175,-0.022,-0.022,-0.022,-0.0221,-0.0322,-0.0325,-0.0328,0,0,0,0,0,0,0,0,0,0,0,0,0,-0.0091,-0.0048,-0.0102,-0.0134,-0.0137,-0.0172,-0.0174,-0.0175,-0.022,-0.022,-0.022,-0.0221,-0.0321,-0.0324,-0.0328,-0.0347,0,0,-0.034,-0.0342,0,0,0,0,0,0,0,0,-0.0088,-0.0093,-0.0128,-0.0132,-0.0136,-0.0187,-0.0191,-0.0234,-0.022,-0.019,-0.0221,-0.0221,-0.0279,-0.0286,-0.03,-0.0352,-0.0356,-0.034,-0.0343,-0.0344,-0.0345,0,0,0,0,0,0,0,-0.0085,-0.009,-0.0131,-0.0129,-0.0134,-0.0158,-0.0164,-0.02,-0.0234,-0.0193,-0.0196,-0.0201,-0.0281,-0.0296,-0.0303,-0.0357,-0.034,-0.0344,-0.0346,-0.0347,-0.042,-0.042,0,0,0,0,0,0,-0.0071,-0.0087,-0.0129,-0.0133,-0.0111,-0.0158,-0.0166,-0.0171,-0.0233,-0.0242,-0.0201,-0.0203,-0.029,-0.0299,-0.0307,-0.0329,-0.0344,-0.0348,-0.035,-0.0421,-0.042,-0.042,0,0,0,0,0,0,-0.007,-0.0074,-0.0126,-0.0111,-0.0119,-0.0159,-0.0165,-0.0172,-0.0185,-0.0239,-0.0249,-0.0206,-0.029,-0.0302,-0.0337,-0.0333,-0.035,-0.0353,-0.0421,-0.042,-0.042,-0.0375,0,0,0,0,0,0,-0.0068,-0.0074,-0.0072,-0.011,-0.0119,-0.0139,-0.0165,-0.0173,-0.0188,-0.0192,-0.0246,-0.0256,-0.0291,-0.0331,-0.0341,-0.0339,-0.0356,-0.0421,-0.0421,-0.042,-0.0377,-0.0373,-0.0369,0,0,0,0,0,-0.0066,-0.006,-0.0072,-0.0077,-0.0116,-0.0138,-0.0145,-0.0176,-0.0188,-0.0189,-0.0229,-0.0254,-0.0333,-0.0334,-0.0346,-0.0344,-0.0422,-0.0421,-0.042,-0.0378,-0.0374,-0.0369,0,0,0,0,0,0,-0.0034,-0.0065,-0.0079,-0.0082,-0.0105,-0.0145,-0.0149,-0.017,-0.0202,-0.0206,-0.0257,-0.027,-0.0296,-0.0325,-0.0325,-0.0362,-0.0379,-0.038,-0.0343,-0.0339,-0.0335,-0.0301,-0.0359,0,0,0,0,0,-0.0026,-0.0029,-0.0063,-0.0064,-0.0073,-0.011,-0.0122,-0.0142,-0.0175,-0.0189,-0.0229,-0.0268,-0.0302,-0.0324,-0.0355,-0.0382,-0.0401,-0.0385,-0.0382,-0.0378,-0.0358,-0.0393,-0.0391,-0.0417,-0.0417,-0.0417,0,0,-0.0013,-0.003,-0.0032,-0.0057,-0.0078,-0.0082,-0.0118,-0.013,-0.0133,-0.0196,-0.0213,-0.0256,-0.0304,-0.0331,-0.0345,-0.0357,-0.0381,-0.0377,-0.0374,-0.0355,-0.0392,-0.0389,-0.0387,-0.0416,-0.0417,-0.0417,0,0,0.0016,-0.0004,0.0005,-0.001,-0.0034,-0.0057,-0.0057,-0.0095,-0.0111,-0.0136,-0.0179,-0.0216,-0.027,-0.0304,-0.0328,-0.0321,-0.0357,-0.0333,-0.0294,-0.033,-0.0328,-0.0326,-0.0347,-0.0347,-0.0336,-0.0336,-0.0335,0,0.0034,0.0038,0.0005,0.001,0.0006,-0.0041,-0.0029,-0.0053,-0.0097,-0.0106,-0.0131,-0.0204,-0.0252,-0.0281,-0.0283,-0.0312,-0.0333,-0.031,-0.0324,-0.0323,-0.0322,-0.0344,-0.0345,-0.0333,-0.0334,-0.0334,-0.0334,0,0.0069,0.0071,0.0076,0.0068,0.0059,0.0061,0.0027,0.0015,-0.0013,-0.0042,-0.0074,-0.0143,-0.0182,-0.0211,-0.0249,-0.0266,-0.0283,-0.0314,-0.0334,-0.0317,-0.0341,-0.0343,-0.033,-0.0331,-0.0332,-0.0332,0,0,0.0112,0.0103,0.0105,0.0118,0.0092,0.0094,0.0089,0.0073,0.008,0.0022,0.0023,-0.0053,-0.0091,-0.0118,-0.0177,-0.0215,-0.0241,-0.0258,-0.0261,-0.0274,-0.0308,-0.032,-0.0324,-0.0279,-0.028,-0.028,-0.0327,0,0.0151,0.0179,0.0161,0.0193,0.0207,0.0172,0.0177,0.0156,0.0126,0.0112,0.0038,0.0014,-0.0056,-0.0076,-0.0125,-0.0207,-0.0244,-0.0224,-0.0325,-0.0327,-0.0337,-0.0326,-0.0298,-0.0338,-0.0329,-0.033,-0.033,0,0.0192,0.0207,0.0246,0.0265,0.027,0.0279,0.0288,0.0285,0.0246,0.0222,0.0177,0.0122,0.0061,-0.0002,-0.0122,-0.0107,-0.0194,-0.0263,-0.0267,-0.029,-0.0343,-0.0355,-0.0343,-0.0334,-0.0334,-0.0334,-0.0333,0,0.0246,0.0269,0.0307,0.0312,0.0321,0.0338,0.0339,0.0318,0.0336,0.0292,0.0298,0.021,0.0178,0.0058,-0.0084,-0.0104,-0.0213,-0.0263,-0.0353,-0.0355,-0.0354,-0.0355,-0.0341,-0.0341,-0.034,-0.034,-0.034,0,0.0294,0.0327,0.0338,0.036,0.0413,0.0397,0.0442,0.0429,0.0429,0.0464,0.0362,0.037,0.0191,0.0105,-0.0042,-0.0192,-0.0183,-0.033,-0.0365,-0.0338,-0.0337,-0.0352,-0.0353,-0.0342,-0.0342,-0.0341,-0.0341,0,0.0346,0.035,0.04,0.0426,0.044,0.0476,0.0516,0.0549,0.0535,0.058,0.0577,0.0499,0.0385,0.0207,0.0019,-0.0122,-0.0276,-0.0334,-0.0281,-0.0309,-0.0405,-0.0403,-0.0436,-0.0437,-0.0437,-0.0438,-0.0438,0,0.0375,0.0404,0.0454,0.0489,0.0503,0.0549,0.0588,0.0597,0.064,0.0666,0.07,0.0617,0.0569,0.029,0.0029,-0.0215,-0.026,-0.0356,-0.0396,-0.0382,-0.0413,-0.041,-0.0407,-0.038,-0.038,-0.038,-0.038,0,0.0428,0.0443,0.0482,0.0557,0.0608,0.0669,0.0725,0.078,0.0808,0.0853,0.0901,0.0873,0.0619,0.0379,0.004,-0.0135,-0.0318,-0.0363,-0.0361,-0.0359,-0.0334,-0.0363,-0.0361,-0.0379,-0.0379,-0.0379,-0.038,-0.038,0.0468,0.0504,0.0555,0.0627,0.0694,0.0782,0.0837,0.0912,0.1003,0.1082,0.1051,0.1023,0.0749,0.0326,0.0018,-0.031,-0.0304,-0.0422,-0.042,-0.0419,-0.0403,-0.038,-0.0431,-0.0431,-0.0432,-0.0432,-0.0432,0,0.0512,0.0553,0.0621,0.0704,0.0783,0.0817,0.0929,0.0988,0.1102,0.1186,0.1222,0.0983,0.0715,0.0394,-0.0083,-0.0373,-0.0405,-0.0468,-0.044,-0.0438,-0.0437,-0.0421,-0.0454,-0.0455,-0.0456,-0.0457,0,0,0.0536,0.06,0.0629,0.0758,0.0828,0.094,0.1008,0.1107,0.1186,0.1258,0.1265,0.123,0.0845,0.0503,0.0103,-0.0173,-0.0244,-0.0236,-0.0186,-0.0104,-0.0099,-0.0377,-0.0346,0,0,0,0,0]}],[{"header":{"parameterUnit":"m.s-1","parameterCategory":2,"la1":30.2991,"la2":30.254,"lo1":-89.0895,"lo2":-89.0444,"dy":0.0017,"dx":0.0017,"nx":28,"ny":28,"refTime":"2024-08-30T09:00:00:Z","depth":"4","parameterNumber":2,"parameterNumberName":"U-component_of_CURRENTS"},"data":[0,0,0,0,0,0,0,0,0,0,0,0,0,0,0,0,0,0,0,0,0,0,0,0,0,0,0,0,0,0,0,0,0,0,0,0,0,0,0,0,0,0,0,0,0,0,0,0,0,0,0,0,0,0,0,0,0,0,0.1564,0.1565,0,0.162,0.1621,0.1621,0.1674,0.1675,0.1676,0.1677,0.1751,0.1752,0.1753,0,0,0,0,0,0,0,0,0,0,0,0,0,0.1477,0.1478,0.1564,0.1565,0.1566,0.162,0.1621,0.1621,0.1674,0.1675,0.1676,0.1677,0.175,0.1751,0.1753,0,0,0,0,0,0,0,0,0,0,0,0,0,0.152,0.1478,0.1564,0.16,0.1604,0.162,0.1621,0.1621,0.1674,0.1675,0.1677,0.1678,0.175,0.1751,0.1753,0.1737,0,0,0.1758,0.1759,0,0,0,0,0,0,0,0,0.1517,0.1522,0.1594,0.1598,0.1603,0.1644,0.1617,0.1662,0.1673,0.1645,0.1677,0.1678,0.1717,0.1721,0.1725,0.174,0.1743,0.1758,0.1759,0.176,0.1761,0,0,0,0,0,0,0,0.1514,0.152,0.1584,0.1595,0.16,0.1605,0.1613,0.1625,0.1671,0.1648,0.1652,0.1662,0.1719,0.1724,0.1728,0.1745,0.1758,0.176,0.1761,0.1762,0.1869,0.1871,0,0,0,0,0,0,0.1512,0.1517,0.1582,0.1586,0.1565,0.1606,0.1615,0.1627,0.1671,0.1679,0.1661,0.1664,0.172,0.1726,0.173,0.1812,0.176,0.1762,0.1763,0.1867,0.1869,0.1871,0,0,0,0,0,0,0.151,0.1517,0.158,0.1554,0.1563,0.1607,0.162,0.1628,0.167,0.1681,0.169,0.17,0.1721,0.1728,0.1778,0.1812,0.1762,0.1764,0.1865,0.1868,0.187,0.1912,0,0,0,0,0,0,0.1507,0.1516,0.1539,0.1554,0.1565,0.1613,0.1619,0.1628,0.1672,0.1679,0.1717,0.1723,0.1723,0.1776,0.178,0.1813,0.1765,0.1863,0.1866,0.187,0.1908,0.1916,0.1922,0,0,0,0,0,0.1504,0.1524,0.154,0.1549,0.159,0.1614,0.162,0.1653,0.1673,0.1695,0.1728,0.1724,0.1801,0.1778,0.1783,0.1817,0.1861,0.1865,0.1869,0.1905,0.1914,0.1922,0,0,0,0,0,0,0.1499,0.1532,0.155,0.1581,0.1608,0.1625,0.1652,0.1672,0.1713,0.1732,0.1742,0.175,0.1807,0.1809,0.1784,0.1861,0.1832,0.1838,0.1858,0.1867,0.1874,0.1883,0.1767,0,0,0,0,0,0.1508,0.1535,0.1562,0.1591,0.1608,0.1637,0.1658,0.1681,0.1711,0.1732,0.1758,0.179,0.182,0.1842,0.1864,0.1902,0.1914,0.193,0.1937,0.1943,0.1956,0.1995,0.2006,0.1885,0.1885,0.1885,0,0,0.1515,0.1538,0.1554,0.1593,0.1619,0.1645,0.1654,0.1696,0.1727,0.1732,0.1793,0.1817,0.1837,0.1883,0.1909,0.1893,0.1987,0.1948,0.1953,0.1963,0.2,0.2012,0.2022,0.1888,0.1887,0.1887,0,0,0.1526,0.1564,0.1586,0.1613,0.1659,0.1675,0.1696,0.1734,0.1766,0.1816,0.1834,0.1883,0.1922,0.1945,0.196,0.202,0.2022,0.2033,0.2075,0.2113,0.2123,0.2132,0.217,0.2182,0.2036,0.2036,0.2036,0,0.1536,0.1566,0.1597,0.1624,0.1653,0.1693,0.1722,0.1754,0.1807,0.1839,0.1847,0.1932,0.1951,0.2007,0.2035,0.2036,0.2059,0.2037,0.2121,0.213,0.2138,0.2175,0.2188,0.2038,0.2038,0.2038,0.2037,0,0.1553,0.1591,0.1609,0.1657,0.169,0.1725,0.1769,0.1818,0.1862,0.1893,0.1971,0.1999,0.2053,0.2067,0.2072,0.2146,0.2145,0.2123,0.2095,0.2153,0.2189,0.2201,0.2042,0.2041,0.204,0.204,0,0,0.1534,0.1607,0.1616,0.165,0.1714,0.1741,0.1804,0.1865,0.1919,0.1975,0.2042,0.2099,0.2129,0.2149,0.2165,0.2201,0.2284,0.2198,0.2199,0.2229,0.238,0.2248,0.2249,0.2278,0.228,0.2282,0.2383,0,0.154,0.1592,0.1629,0.169,0.1722,0.1784,0.1837,0.1905,0.1964,0.204,0.2091,0.216,0.2155,0.2197,0.2234,0.2278,0.2319,0.226,0.2326,0.2328,0.2198,0.2259,0.2289,0.2392,0.2395,0.2397,0.2398,0,0.1536,0.1576,0.1631,0.1717,0.1739,0.1787,0.189,0.1943,0.2049,0.2102,0.2178,0.2221,0.2309,0.2285,0.2386,0.2353,0.238,0.2398,0.2402,0.2273,0.2219,0.2322,0.2421,0.2419,0.2417,0.2416,0.2414,0,0.1496,0.1576,0.1625,0.1654,0.1752,0.1806,0.1868,0.197,0.2027,0.2155,0.2215,0.2305,0.2375,0.242,0.2475,0.2445,0.2572,0.2526,0.2431,0.2422,0.249,0.2479,0.2592,0.2592,0.2592,0.2592,0.2592,0,0.1472,0.1516,0.162,0.1647,0.1721,0.18,0.1887,0.1967,0.2078,0.215,0.2252,0.2314,0.2416,0.2492,0.2515,0.2519,0.2607,0.2455,0.2441,0.2507,0.2497,0.2499,0.2487,0.2596,0.2595,0.2594,0.2593,0,0.1414,0.1481,0.1545,0.166,0.1703,0.176,0.1889,0.1943,0.2069,0.2168,0.2218,0.2358,0.2458,0.2537,0.2628,0.2562,0.2581,0.2559,0.2654,0.2641,0.2397,0.2386,0.2452,0.2448,0.2445,0.2442,0.244,0,0.1384,0.1412,0.1539,0.1581,0.164,0.1734,0.1793,0.1926,0.1982,0.2169,0.2206,0.2359,0.2437,0.2462,0.2551,0.2592,0.2559,0.255,0.2442,0.2404,0.2385,0.2379,0.2373,0.2435,0.2434,0.2433,0.2433,0,0.1325,0.1385,0.1438,0.1522,0.1595,0.1659,0.1759,0.1783,0.1937,0.2071,0.2145,0.2204,0.2316,0.2378,0.244,0.2454,0.2539,0.2515,0.252,0.2419,0.2384,0.2367,0.2364,0.2421,0.2423,0.2424,0.2425,0,0.1284,0.1304,0.1383,0.1445,0.1529,0.156,0.1621,0.1692,0.1762,0.1963,0.1986,0.215,0.2291,0.231,0.2362,0.2377,0.2329,0.2235,0.2253,0.2267,0.2158,0.2084,0.2031,0,0,0,0,0,0.1233,0.1245,0.1298,0.1355,0.143,0.1481,0.1588,0.1649,0.1795,0.1801,0.1886,0.1979,0.206,0.2142,0.2122,0.2285,0.234,0.225,0.2241,0.236,0.2373,0.2262,0,0,0,0,0,0,0.1196,0.1244,0.1262,0.1265,0.1288,0.1356,0.1418,0.1516,0.1524,0.1683,0.1738,0.1866,0.1976,0.206,0.2087,0.2114,0.2069,0.2356,0.2351,0.2353,0.2365,0.2375,0.2265,0,0,0,0,0]},{"header":{"parameterUnit":"m.s-1","parameterCategory":2,"la1":30.2991,"la2":30.254,"lo1":-89.0895,"lo2":-89.0444,"dy":0.0017,"dx":0.0017,"nx":28,"ny":28,"refTime":"2024-08-30T09:00:00:Z","depth":"4","parameterNumber":3,"parameterNumberName":"V-component_of_CURRENTS"},"data":[0,0,0,0,0,0,0,0,0,0,0,0,0,0,0,0,0,0,0,0,0,0,0,0,0,0,0,0,0,0,0,0,0,0,0,0,0,0,0,0,0,0,0,0,0,0,0,0,0,0,0,0,0,0,0,0,0,0,-0.0009,-0.0009,0,-0.0049,-0.0049,-0.005,-0.0083,-0.0083,-0.0084,-0.0084,-0.015,-0.0151,-0.0153,0,0,0,0,0,0,0,0,0,0,0,0,0,0.0022,0.0022,-0.0009,-0.0009,-0.001,-0.0049,-0.0049,-0.005,-0.0083,-0.0083,-0.0084,-0.0084,-0.015,-0.0151,-0.0153,0,0,0,0,0,0,0,0,0,0,0,0,0,-0.0002,0.0022,-0.0009,-0.0031,-0.0033,-0.0049,-0.0049,-0.005,-0.0083,-0.0083,-0.0084,-0.0084,-0.0149,-0.0151,-0.0153,-0.0156,0,0,-0.016,-0.0161,0,0,0,0,0,0,0,0,-0.0,-0.0003,-0.0027,-0.0029,-0.0032,-0.0061,-0.0063,-0.0087,-0.0083,-0.0064,-0.0084,-0.0085,-0.0122,-0.0127,-0.0133,-0.0159,-0.0162,-0.016,-0.0161,-0.0162,-0.0163,0,0,0,0,0,0,0,0.0001,-0.0001,-0.0025,-0.0027,-0.003,-0.0045,-0.0048,-0.0067,-0.009,-0.0066,-0.0068,-0.0072,-0.0124,-0.0131,-0.0135,-0.0163,-0.016,-0.0162,-0.0163,-0.0164,-0.0196,-0.0195,0,0,0,0,0,0,0.0008,0.0,-0.0023,-0.0026,-0.0017,-0.0045,-0.0049,-0.0051,-0.009,-0.0096,-0.0072,-0.0074,-0.0127,-0.0132,-0.0137,-0.0136,-0.0162,-0.0164,-0.0166,-0.0196,-0.0196,-0.0195,0,0,0,0,0,0,0.0009,0.0006,-0.0022,-0.0014,-0.0018,-0.0044,-0.0047,-0.0052,-0.0061,-0.0094,-0.0101,-0.0076,-0.0127,-0.0134,-0.0152,-0.0139,-0.0165,-0.0167,-0.0197,-0.0196,-0.0195,-0.0139,0,0,0,0,0,0,0.001,0.0007,0.0008,-0.0013,-0.0019,-0.0026,-0.0047,-0.0052,-0.0062,-0.0065,-0.0099,-0.0106,-0.0128,-0.0149,-0.0154,-0.0143,-0.0169,-0.0197,-0.0196,-0.0196,-0.0141,-0.0136,-0.0132,0,0,0,0,0,0.0011,0.0017,0.0009,0.0006,-0.0016,-0.0025,-0.0029,-0.005,-0.0062,-0.006,-0.0085,-0.0105,-0.0147,-0.015,-0.0157,-0.0146,-0.0198,-0.0197,-0.0196,-0.0143,-0.0137,-0.0132,0,0,0,0,0,0,0.003,0.0014,0.0004,0.0004,-0.0008,-0.0031,-0.0032,-0.0046,-0.0064,-0.0068,-0.0102,-0.011,-0.012,-0.0141,-0.0143,-0.0152,-0.0175,-0.0175,-0.0133,-0.0127,-0.0123,-0.0116,-0.0171,0,0,0,0,0,0.0036,0.0037,0.0018,0.0019,0.0014,-0.0008,-0.0015,-0.0028,-0.0047,-0.0056,-0.008,-0.0104,-0.012,-0.013,-0.015,-0.0155,-0.0187,-0.0152,-0.0148,-0.0144,-0.0143,-0.018,-0.0178,-0.0192,-0.0192,-0.0192,0,0,0.0044,0.0035,0.0035,0.0023,0.0012,0.0015,-0.0013,-0.0019,-0.0016,-0.006,-0.0065,-0.0091,-0.0119,-0.0125,-0.0131,-0.0141,-0.0156,-0.0142,-0.0138,-0.014,-0.0179,-0.0177,-0.0176,-0.0191,-0.0191,-0.0191,0,0,0.0065,0.0052,0.0062,0.0056,0.0043,0.0032,0.0032,0.0011,0.0002,-0.0007,-0.0035,-0.0056,-0.008,-0.0098,-0.011,-0.0093,-0.0132,-0.0095,-0.0065,-0.01,-0.0099,-0.0099,-0.0136,-0.014,-0.009,-0.009,-0.009,0,0.0075,0.0082,0.0063,0.0072,0.0073,0.0043,0.0056,0.0046,0.0022,0.0016,-0.0001,-0.0041,-0.0068,-0.0075,-0.0068,-0.0082,-0.0109,-0.0082,-0.0094,-0.0094,-0.0095,-0.0134,-0.0138,-0.0087,-0.0088,-0.0088,-0.0088,0,0.0102,0.0109,0.0114,0.0117,0.0117,0.0122,0.0107,0.0101,0.0084,0.0068,0.0051,0.0013,-0.0013,-0.002,-0.0039,-0.0049,-0.007,-0.0085,-0.0107,-0.009,-0.0132,-0.0138,-0.0083,-0.0084,-0.0085,-0.0086,0,0,0.0124,0.0133,0.0135,0.0148,0.0141,0.0147,0.0152,0.0148,0.015,0.012,0.0117,0.0084,0.0055,0.0039,0.0011,-0.0017,-0.0047,-0.0047,-0.0051,-0.0082,-0.0127,-0.0125,-0.0132,-0.0064,-0.0065,-0.0065,-0.0153,0,0.0151,0.0181,0.0177,0.0208,0.0223,0.0205,0.0215,0.0207,0.0188,0.0177,0.0133,0.0118,0.0081,0.0071,0.0036,-0.0025,-0.006,-0.0022,-0.0141,-0.0144,-0.0143,-0.0137,-0.0067,-0.0158,-0.016,-0.0161,-0.0161,0,0.0179,0.0197,0.0231,0.0257,0.0263,0.0276,0.0285,0.0289,0.0263,0.0247,0.0216,0.0178,0.0136,0.0101,-0.0002,0.0025,-0.0047,-0.0099,-0.0104,-0.0126,-0.0152,-0.018,-0.0173,-0.0172,-0.0171,-0.017,-0.017,0,0.0206,0.0237,0.0269,0.0276,0.0297,0.031,0.0319,0.0307,0.0321,0.0288,0.0288,0.0223,0.0196,0.0101,-0.0005,-0.0007,-0.0124,-0.0144,-0.0213,-0.0214,-0.0215,-0.0215,-0.0224,-0.0224,-0.0224,-0.0224,-0.0224,0,0.0233,0.026,0.0285,0.0302,0.0344,0.0345,0.0376,0.0372,0.0373,0.0394,0.0326,0.0323,0.0195,0.0117,0.0008,-0.0116,-0.012,-0.0209,-0.0235,-0.0189,-0.0185,-0.022,-0.0218,-0.0227,-0.0226,-0.0226,-0.0225,0,0.0253,0.0267,0.0308,0.0341,0.0357,0.0384,0.0425,0.0445,0.0438,0.0463,0.046,0.0396,0.0292,0.0158,0.0003,-0.0089,-0.0214,-0.026,-0.0199,-0.022,-0.0287,-0.0282,-0.035,-0.035,-0.0351,-0.0351,-0.0352,0,0.0264,0.0287,0.0339,0.0367,0.0383,0.0424,0.0454,0.0473,0.05,0.0511,0.0528,0.0448,0.0385,0.0174,0.0017,-0.0196,-0.0227,-0.0301,-0.0299,-0.0281,-0.03,-0.0293,-0.0287,-0.0352,-0.0353,-0.0353,-0.0353,0,0.0284,0.03,0.0333,0.0394,0.0436,0.0489,0.0535,0.0565,0.0592,0.0594,0.0594,0.049,0.0371,0.0193,0.0027,-0.0128,-0.0257,-0.0308,-0.0308,-0.0306,-0.0285,-0.0302,-0.0295,-0.0355,-0.0354,-0.0354,-0.0354,0,0.0295,0.0318,0.036,0.0415,0.0476,0.0537,0.0559,0.06,0.0632,0.0652,0.065,0.0526,0.0456,0.0228,0.0076,-0.0076,-0.0122,-0.0178,-0.0186,-0.0186,-0.0115,-0.0063,-0.0085,0,0,0,0,0,0.0303,0.0328,0.0379,0.0439,0.0504,0.0543,0.061,0.0628,0.0659,0.0676,0.0671,0.0567,0.0357,0.026,0.011,0.0037,-0.0171,-0.0148,-0.0245,-0.0365,-0.0363,-0.0306,0,0,0,0,0,0,0.0303,0.0347,0.0373,0.0453,0.0498,0.0573,0.0619,0.0644,0.065,0.0665,0.0558,0.052,0.031,0.0448,0.0106,0.0058,-0.0027,-0.0245,-0.0248,-0.0366,-0.0364,-0.0362,-0.0303,0,0,0,0,0]}]]